This demonstration page uses our WeatherBlox Daily Observations layout. Learn more.

Left ArrowRight Arrow

Hourly Observations for September 21, 2017

Temp ( °F °C ) Dew Point ( °F °C ) Humidity (%) Winds ( mph kmh ) Pressure ( in mb ) Visibility ( mi km ) Precip ( " mm )
12:51 am 00:51 Clear 73 22.8 30 -1.1 20 20 S 7 11 29.74 1007 10 16 N/A
1:51 am 01:51 Clear 68 20 31 -0.6 25 25 N N/A 29.75 1007 10 16 N/A
2:51 am 02:51 Clear 66 18.9 35 1.7 32 32 ENE 7 11 29.74 1007 10 16 N/A
3:51 am 03:51 Clear 65 18.3 35 1.7 33 33 SSE 7 11 29.76 1008 10 16 N/A
4:51 am 04:51 Clear 67 19.4 34 1.1 30 30 NE 10 17 29.75 1007 10 16 N/A
5:51 am 05:51 Clear 64 17.8 35 1.7 34 34 SE 6 9 29.76 1008 10 16 N/A
6:51 am 06:51 Sunny 68 20 37 2.8 32 32 ENE 3 6 29.77 1008 10 16 N/A
7:51 am 07:51 Sunny 78 25.6 48 8.9 35 35 SSE 5 7 29.76 1008 10 16 N/A
8:51 am 08:51 Sunny 81 27.2 54 12.2 39 39 VRB 3 6 29.77 1008 10 16 N/A
9:51 am 09:51 Sunny 86 30 54 12.2 33 33 S 9 15 29.75 1008 9 14 N/A
10:51 am 10:51 Sunny 87 30.6 52 11.1 30 30 SSE 5 7 29.73 1007 10 16 N/A
11:51 am 11:51 Sunny 90 32.2 50 10 25 25 SW 7 11 29.71 1006 10 16 N/A
12:51 pm 12:51 Sunny 93 33.9 47 8.3 21 21 W 7 11 29.67 1005 10 16 N/A
1:51 pm 13:51 Sunny 94 34.4 44 6.7 18 18 WNW 12 19 29.65 1004 10 16 N/A
2:51 pm 14:51 Mostly Sunny 93 33.9 44 6.7 18 18 NW 8 13 29.62 1003 10 16 N/A
3:51 pm 15:51 Mostly Sunny 93 33.9 42 5.6 17 17 N N/A 29.61 1003 10 16 N/A
4:51 pm 16:51 Cloudy 93 33.9 39 3.9 15 15 WSW 12 19 29.60 1002 10 16 N/A
5:51 pm 17:51 Partly Cloudy 91 32.8 39 3.9 16 16 W 14 22 29.60 1003 10 16 N/A
6:51 pm 18:51 Partly Cloudy 86 30 39 3.9 19 19 W 10 17 29.62 1003 10 16 N/A
7:51 pm 19:51 Partly Cloudy 84 28.9 40 4.4 21 21 WNW 7 11 29.62 1003 10 16 N/A
8:51 pm 20:51 Mostly Clear 82 27.8 40 4.4 22 22 N N/A 29.62 1003 10 16 N/A
9:51 pm 21:51 Clear 80 26.7 39 3.9 23 23 S 6 9 29.62 1003 10 16 N/A
10:51 pm 22:51 Clear 77 25 38 3.3 24 24 NW 3 6 29.62 1003 10 16 N/A
11:51 pm 23:51 Clear 77 25 38 3.3 24 24 VRB 6 9 29.61 1003 10 16 N/A

Powered by AerisWeather